カタログに戻る

THORAD AGENA D DEB

運用中PO
NORAD 4912·DEBRIS·🇺🇸 United States

打ち上げ Apr 8, 1970 から Vandenberg Space Force Base

Loading…

次のパス

TLE

Source: Space-Track
1 04912U 70025FJ  26228.29261654  .00001525  00000-0  64542-3 0  9992
2 04912  99.7260 356.2828 0037736 134.6185 225.8081 14.26839046862666

AllMySatでTHORAD AGENA D DEBをリアルタイム追跡

Download on the App Store